{"data":{"norad_id":68795,"intl_designator":"2026-088D","name":"ORIGAMISAT-2","alt_names":[],"object_type":"PAYLOAD","status":"ACTIVE","operator":null,"country":"JPN","launch_date":"2026-04-23","launch_site_code":"RLLB","launch_vehicle":null,"mission":null,"orbit_class":"UNKNOWN","rcs_meters":null,"size_class":null,"mass_kg":null,"dimensions":null,"purposes":[],"wikipedia_slug":null,"has_3d_model":false,"image_url":null,"decayed_at":null,"tle_current":{"epoch":"2026-05-25T03:26:58.315200Z","epoch_age_seconds":62670,"freshness":"FRESH","line1":"1 68795U 26088D   26145.14373050  .00003400  00000+0  22386-3 0  9990","line2":"2 68795  97.5019 295.0662 0016513 156.0809 204.1190 15.08088584  4821","mean_motion":15.08088584,"eccentricity":0.0016513,"inclination_deg":97.5019,"raan_deg":295.0662,"arg_perigee_deg":156.0809,"mean_anomaly_deg":204.119,"bstar":0.00022386,"rev_number":482,"period_min":95.485107126837,"perigee_km":530.61383053927,"apogee_km":553.4684108006,"semimajor_km":6920.1781206699,"source":"CELESTRAK","updated_at":"2026-05-25T13:38:08.088052Z"}}}